Location: Bishausen
(51.6334°N, 9.9631°E)
Time: 16:11:34
(UTC+00:00)

SAR-Lupe-4 - Pass Details

Date: 23 May 2024
Orbit: 476 x 482 km, 98.1° (Epoch: 02 April)

Event Time Altitude Azimuth Distance (km) Brightness Sun altitude
Rises 02:08:36 0° 16° (NNE) 2,555 8.6 -8.6°
Reaches altitude 10° 02:10:41 10° 19° (NNE) 1,670 7.6 -8.3°
Maximum altitude 02:14:15 66° 103° (ESE) 529 3.9 -8.0°
Drops below altitude 10° 02:17:48 10° 186° (S) 1,655 5.8 -7.6°
Enters shadow 02:18:38 - 188° (S) 2,010 6.2 -7.5°
